STARLINK-37585, 69421

Orbit data source: Space-Track

STARLINK-37585, 69421 is a payload satellite owned by SpaceX/Seattle (US) in SSO that was launched on Sun, 07 Jun 2026 UTC via an FALCON 9 launch vehicle from the Air Force Western Test Range (AFWTR). Payload-class satellites include a variety of spacecraft equipped with specific instruments for various scientific and technological missions. These include communications satellites like Starlink; space stations such as the ISS; scientific satellites like the Hubble; Earth observation satellites from companies like Planet Labs, Umbra, and HawkEye 360; GPS; miniature CubeSats for education and research; and military/defense satellites.

Loading next visibility...
Identifier
69421, 2026-126B
Orbit
SSO
Country
Flag of USUS
Related business
Manufacturer
SpaceX/Seattle
Mission
Operational spacecraft
Bus & Motor
STARLINK V2MO, Unknown motor
Mass
575 kg wet, ~530 kg dry
Launch date (UTC)
2026-06-07 (2 weeks ago)
Launch vehicle
FALCON 9
Launch site
Air Force Western Test Range (AFWTR)
Object type
Payload
Rocket body
Debris
Shape & HBR
Unknown
Radar Cross Section
RCS unknown

Expand to show TLE details & history
Last TLE update: 12 hours ago

TLE from 12 hours ago
0 STARLINK-37585
1 69421U 26126B   26171.33941131  .00201057  00000-0  13153-2 0  9991
2 69421  97.2850  31.4972 0001369  91.1012 269.0410 15.75225886  3244
Epoch: 2026-06-20T08:08Z
TLE epoch observation values (Epoch: 2026-06-20T08:08:45.137Z)
Latitude
-0.00001°
Longitude
0.75368°
Altitude
347.172 km
Speed
7.701 km/s
True Right ascension
02h 05m 59s
True Declination
0° 00' 00"
Sunlit
Object was in daylight at epoch
Visualization orbit readout
Latitude
Unknown
Longitude
Unknown
Altitude
Unknown
Speed
Unknown
Apparent Right ascension
Unknown
Apparent Declination
Unknown
Sunlit
N/A
Visualization observer readout
Local Sidereal Time
07:18:15
Azimuth
Unknown
Elevation
Unknown
Doppler factor
Unknown
Orbital elements
Apogee altitude
341.796 km
Perigee altitude
339.956 km
Semi-major axis
6,719.013 km
Eccentricity
0.00014
Inclination
97.285°
RAAN
31.4972°
Arg. of periapsis
91.1012°
True anomaly
269.02531°
Mean anomaly
269.041°
Eccentric anomaly
269.03316°
Mean motion
3.94081 °/min
Orbital period
91.35 mins
BSTAR
0.0013153
Loading maneuver chart data...
Computing Atmospheric mass density...
Loading historical data...
Loading historical data...
Loading historical data...
Loading historical data...
Loading historical data...
Loading historical data...
Loading historical data...

Documentation

Showing up to 5 results
|